Garden City, GA

5:42 PM EDT on September 26, 2016 (GMT -0400)
Savannah International

Weather History for KSAV - September, 2013

Change the Weather History Date:

Tuesday, September 24, 2013

  Actual Average Record
Temperature  
Mean Temperature 77 °F 75 °F  
Max Temperature 83 °F 84 °F 96 °F (1986)
Min Temperature 70 °F 66 °F 47 °F (1967)
Degree Days  
Heating Degree Days 0 0  
Month to date heating degree days 0 0  
Since 1 July heating degree days 0 0  
Cooling Degree Days 12 10  
Month to date cooling degree days 348 305  
Year to date cooling degree days 2197 2212  
Growing Degree Days 26 (Base 50)    
Moisture  
Dew Point 64 °F    
Average Humidity 71    
Maximum Humidity 84    
Minimum Humidity 58    
Precipitation  
Precipitation 0.00 in 0.13 in 2.50 in (1947)
Month to date precipitation 1.14 3.74  
Year to date precipitation 48.31 38.11  
Sea Level Pressure  
Sea Level Pressure 29.97 in    
Wind  
Wind Speed 10 mph (ENE)    
Max Wind Speed 20 mph    
Max Gust Speed 23 mph    
Visibility 10 miles    
Events      
T = Trace of Precipitation, MM = Missing Value Source: NWS Daily Summary

Daily Weather History Graph

Daily Weather History Graph

Search for Another Location

Airport or City:

Trip Planner

Search our weather history database for the weather conditions in past years. The results will help you decide how hot, cold, wet, or windy it might be!

Date:

Astronomy

Sep. 24, 2013 Rise Set
Actual Time 7:14 AM EDT 7:18 PM EDT
Civil Twilight 6:50 AM EDT 7:42 PM EDT
Nautical Twilight 6:21 AM EDT 8:11 PM EDT
Astronomical Twilight 5:52 AM EDT 8:39 PM EDT
Moon 10:52 PM EDT (9/24) 12:10 PM EDT (9/24)
Length of Visible Light 12h 52m
Length of Day
12h 04m
Waning Gibbous, 73% of the Moon is Illuminated
Sep 24
Waning Gibbous
Sep 26
Last Quarter
Oct 4
New
Oct 11
First Quarter
Oct 18
Full

Hourly Weather History & Observations

Time (EDT) Temp. Heat Index Dew Point Humidity Pressure Visibility Wind Dir Wind Speed Gust Speed Precip Events Conditions
12:53 AM 73.9 °F - 62.1 °F 66% 30.01 in 10.0 mi ENE 5.8 mph - N/A   Overcast
1:53 AM 73.9 °F - 62.1 °F 66% 30.01 in 10.0 mi NE 6.9 mph - N/A   Overcast
2:53 AM 73.0 °F - 61.0 °F 66% 30.00 in 10.0 mi ENE 6.9 mph - N/A   Overcast
3:53 AM 73.0 °F - 63.0 °F 71% 29.99 in 10.0 mi NE 6.9 mph - N/A   Overcast
4:53 AM 72.0 °F - 63.0 °F 73% 29.98 in 10.0 mi NE 10.4 mph - N/A   Overcast
5:53 AM 72.0 °F - 63.0 °F 73% 30.00 in 10.0 mi NE 9.2 mph - N/A   Overcast
6:53 AM 71.1 °F - 64.0 °F 78% 30.01 in 10.0 mi NE 5.8 mph - N/A   Overcast
7:53 AM 71.1 °F - 64.0 °F 78% 30.01 in 10.0 mi NE 9.2 mph - N/A   Overcast
8:53 AM 73.0 °F - 62.1 °F 68% 30.01 in 10.0 mi ENE 11.5 mph - N/A   Mostly Cloudy
9:53 AM 73.9 °F - 60.1 °F 62% 30.02 in 10.0 mi ENE 10.4 mph - N/A   Overcast
10:53 AM 77.0 °F - 63.0 °F 62% 30.01 in 10.0 mi ENE 11.5 mph - N/A   Overcast
11:53 AM 81.0 °F 82.5 °F 64.0 °F 56% 29.99 in 10.0 mi East 16.1 mph 21.9 mph N/A   Mostly Cloudy
12:53 PM 81.0 °F 82.5 °F 64.0 °F 56% 29.98 in 10.0 mi East 12.7 mph - N/A   Overcast
1:53 PM 79.0 °F - 64.9 °F 62% 29.97 in 10.0 mi East 10.4 mph - N/A   Overcast
2:53 PM 80.1 °F 81.9 °F 64.9 °F 60% 29.96 in 10.0 mi ENE 13.8 mph - N/A   Overcast
3:53 PM 78.1 °F - 64.0 °F 62% 29.94 in 10.0 mi ENE 13.8 mph - N/A   Overcast
4:53 PM 78.1 °F - 66.0 °F 66% 29.93 in 10.0 mi ENE 11.5 mph - N/A   Overcast
5:53 PM 77.0 °F - 66.0 °F 69% 29.92 in 10.0 mi ENE 10.4 mph - N/A   Overcast
6:53 PM 75.0 °F - 66.0 °F 73% 29.92 in 10.0 mi ENE 6.9 mph - N/A   Overcast
7:53 PM 73.9 °F - 64.9 °F 73% 29.91 in 10.0 mi ENE 8.1 mph - N/A   Mostly Cloudy
8:53 PM 73.0 °F - 64.9 °F 76% 29.91 in 10.0 mi ENE 6.9 mph - N/A   Scattered Clouds
9:53 PM 72.0 °F - 64.9 °F 78% 29.91 in 10.0 mi NNE 5.8 mph - N/A   Partly Cloudy
10:53 PM 71.1 °F - 64.9 °F 81% 29.89 in 10.0 mi NE 8.1 mph - N/A   Scattered Clouds
11:53 PM 70.0 °F - 64.9 °F 84% 29.88 in 10.0 mi NE 8.1 mph - N/A   Scattered Clouds